DW7126 Weather Reports


time (UTC)temp
C
wind
direction
speed
KPH
gust
KPH
rain 1hr
cm
rain 24hr
cm
rain mn
cm
humidity
%
barometer
mb
20200930021041 16 24 4.8 9.7 0.00 0.00 0.00 91 1017.7
20200930020050 16 48 4.8 8.0 0.00 0.00 0.00 91 1017.9
20200930015040 15 26 3.2 6.4 0.00 0.00 0.00 91 1018.0
20200930014028 15 49 4.8 8.0 0.00 0.00 0.00 91 1017.9
20200930013113 15 50 4.8 8.0 0.00 0.00 0.00 91 1017.8
20200930013039 15 50 6.4 8.0 0.00 0.00 0.00 91 1018.0
20200930012051 16 34 6.4 9.7 0.00 0.00 0.00 91 1018.0
20200930011601 15 48 6.4 8.0 0.00 0.00 0.00 91 1017.9
20200930011045 16 44 4.8 6.4 0.00 0.00 0.00 91 1018.1
20200930010043 16 38 3.2 11.3 0.00 0.00 0.00 90 1018.1
20200930005030 16 30 4.8 8.0 0.00 0.00 0.00 91 1018.2
20200930004534 15 36 3.2 9.7 0.00 0.00 0.00 90 1018.0
20200930004046 16 28 6.4 9.7 0.00 0.00 0.00 90 1018.1
20200930003057 16 29 4.8 9.7 0.00 0.00 0.00 90 1018.1
20200930003041 15 29 4.8 9.7 0.00 0.00 0.00 90 1017.9
20200930002029 16 53 4.8 6.4 0.00 0.00 0.00 90 1018.0
20200930001028 16 30 6.4 11.3 0.00 0.00 0.00 90 1018.0
20200930000043 16 41 8.0 12.9 0.00 0.00 0.00 90 1017.9
20200930000027 16 40 6.4 12.9 0.00 0.00 0.00 90 1017.7
20200929235028 16 12 8.0 11.3 0.00 0.00 0.00 90 1017.9
20200929234039 16 33 3.2 8.0 0.00 0.00 0.00 90 1018.0
20200929233103 16 31 1.6 9.7 0.00 0.00 0.00 89 1018.0
20200929232056 16 21 8.0 12.9 0.00 0.00 0.00 89 1017.9
20200929231537 16 30 6.4 9.7 0.00 0.00 0.00 89 1017.9
20200929231040 16 35 4.8 11.3 0.00 0.00 0.00 89 1018.1
20200929230039 16 5 4.8 9.7 0.00 0.00 0.00 89 1018.1
20200929225031 16 28 6.4 9.7 0.00 0.00 0.00 89 1018.0
20200929224028 16 30 4.8 11.3 0.00 0.00 0.00 89 1018.0
20200929223056 16 28 8.0 12.9 0.00 0.00 0.00 89 1018.1
20200929223029 16 28 6.4 12.9 0.00 0.00 0.00 89 1017.9
20200929222030 16 19 8.0 14.5 0.00 0.00 0.00 89 1018.2
20200929221031 16 22 3.2 9.7 0.00 0.00 0.00 88 1018.2
20200929220044 16 33 6.4 11.3 0.00 0.00 0.00 88 1018.1
20200929215049 16 29 8.0 11.3 0.00 0.00 0.00 88 1018.1
20200929214519 16 32 4.8 9.7 0.00 0.00 0.00 88 1017.9
20200929214032 16 24 6.4 12.9 0.00 0.00 0.00 88 1018.1
20200929213041 16 37 8.0 17.7 0.00 0.00 0.00 88 1018.1
20200929212052 17 23 9.7 16.1 0.00 0.00 0.00 87 1018.0
20200929211037 17 26 9.7 16.1 0.00 0.00 0.00 87 1017.9
20200929210047 17 28 8.0 14.5 0.00 0.00 0.00 87 1018.0
20200929204039 17 27 6.4 14.5 0.00 0.00 0.00 87 1018.0
20200929203101 17 17 9.7 16.1 0.00 0.00 0.00 87 1017.9
20200929203025 17 22 9.7 16.1 0.00 0.00 0.00 87 1017.7
20200929202032 17 11 9.7 17.7 0.00 0.00 0.00 87 1017.7
20200929201031 17 27 8.0 20.9 0.00 0.00 0.00 87 1017.7
20200929200050 17 22 12.9 19.3 0.00 0.00 0.00 87 1017.5
20200929200024 17 49 12.9 19.3 0.00 0.00 0.00 87 1017.3
20200929195031 17 13 6.4 14.5 0.00 0.00 0.00 86 1017.4
20200929194046 17 26 8.0 16.1 0.00 0.00 0.00 86 1017.4
20200929193103 17 34 11.3 16.1 0.00 0.00 0.00 86 1017.3
20200929192057 17 36 9.7 17.7 0.00 0.00 0.00 86 1017.3
20200929191528 17 24 11.3 19.3 0.00 0.00 0.00 85 1017.1
20200929191037 17 22 11.3 19.3 0.00 0.00 0.00 85 1017.3
20200929190047 17 5 8.0 12.9 0.00 0.00 0.00 84 1017.3
20200929185044 18 5 6.4 14.5 0.00 0.00 0.00 83 1017.3
20200929184533 17 13 6.4 16.1 0.00 0.00 0.00 83 1017.1
20200929184052 18 5 8.0 17.7 0.00 0.00 0.00 83 1017.2
20200929183038 18 360 8.0 16.1 0.00 0.00 0.00 82 1017.1
20200929182058 18 5 9.7 17.7 0.00 0.00 0.00 81 1017.0
20200929181825 18 22 11.3 20.9 0.00 0.00 0.00 80 1016.9
20200929181039 18 355 12.9 25.7 0.00 0.00 0.00 79 1017.1
20200929180046 19 360 11.3 19.3 0.00 0.00 0.00 78 1016.9
20200929175056 20 355 12.9 20.9 0.00 0.00 0.00 77 1016.8
20200929174740 20 9 11.3 19.3 0.00 0.00 0.00 76 1016.6
20200929174033 20 20 9.7 17.7 0.00 0.00 0.00 75 1016.7
20200929173053 21 23 8.0 16.1 0.00 0.00 0.00 73 1016.6
20200929173008 20 28 6.4 16.1 0.00 0.00 0.00 73 1016.5
20200929172027 20 36 12.9 20.9 0.00 0.00 0.00 70 1016.5
20200929171036 21 19 9.7 19.3 0.00 0.00 0.00 69 1016.4
20200929170114 21 5 9.7 16.1 0.00 0.00 0.00 69 1016.3
20200929170035 21 355 9.7 16.1 0.00 0.00 0.00 69 1016.2
20200929165033 21 21 9.7 17.7 0.00 0.00 0.00 69 1016.3
20200929164025 21 40 11.3 19.3 0.00 0.00 0.00 68 1016.3
20200929163043 21 13 9.7 17.7 0.00 0.00 0.00 67 1016.3
20200929162054 22 15 8.0 17.7 0.00 0.00 0.00 68 1016.2
20200929161036 22 360 12.9 19.3 0.00 0.00 0.00 67 1016.2
20200929160057 22 21 12.9 24.1 0.00 0.00 0.00 67 1016.2
20200929155031 22 17 12.9 25.7 0.00 0.00 0.00 67 1016.2
20200929154041 22 347 14.5 22.5 0.00 0.00 0.00 68 1016.2
20200929153059 22 5 14.5 24.1 0.00 0.00 0.00 68 1016.3
20200929153051 22 43 14.5 24.1 0.00 0.00 0.00 67 1016.2
20200929152035 23 342 14.5 22.5 0.00 0.00 0.00 67 1016.3
20200929151035 23 355 16.1 24.1 0.00 0.00 0.00 67 1016.3
20200929150048 23 355 11.3 17.7 0.00 0.00 0.00 67 1016.2
20200929145038 22 13 12.9 19.3 0.00 0.00 0.00 68 1016.2
20200929144510 22 16 9.7 20.9 0.00 0.00 0.00 69 1016.1
20200929144042 22 344 11.3 20.9 0.00 0.00 0.00 68 1016.3
20200929143043 22 31 14.5 24.1 0.00 0.00 0.00 69 1016.3
20200929142033 22 350 16.1 22.5 0.00 0.00 0.00 68 1016.4
20200929141026 22 360 9.7 22.5 0.00 0.00 0.00 69 1016.4
20200929140051 22 9 11.3 20.9 0.00 0.00 0.00 70 1016.4
20200929140008 22 348 11.3 20.9 0.00 0.00 0.00 70 1016.3
20200929135023 22 15 9.7 22.5 0.00 0.00 0.00 71 1016.5
20200929134036 22 316 14.5 22.5 0.00 0.00 0.00 71 1016.6
20200929133051 22 355 17.7 22.5 0.00 0.00 0.00 69 1016.8
20200929132033 23 5 12.9 22.5 0.00 0.00 0.00 67 1016.8
20200929131524 22 11 14.5 22.5 0.00 0.00 0.00 67 1016.7
20200929131034 23 351 11.3 27.4 0.00 0.00 0.00 67 1016.8
20200929130112 23 348 14.5 24.1 0.00 0.00 0.00 66 1016.9
20200929130031 23 350 16.1 24.1 0.00 0.00 0.00 66 1016.8
20200929125038 23 26 9.7 20.9 0.00 0.00 0.00 66 1016.9
20200929124535 23 355 12.9 20.9 0.00 0.00 0.00 66 1016.8
20200929124058 23 5 11.3 17.7 0.00 0.00 0.00 66 1017.0
20200929123043 23 9 11.3 19.3 0.00 0.00 0.00 66 1017.1
20200929122034 23 28 11.3 19.3 0.00 0.00 0.00 68 1017.1
20200929121037 23 16 11.3 19.3 0.00 0.00 0.00 69 1017.1
20200929120040 23 348 9.7 17.7 0.00 0.00 0.00 69 1017.3
20200929120023 22 355 8.0 17.7 0.00 0.00 0.00 69 1017.2
20200929115034 22 5 9.7 19.3 0.00 0.00 0.00 71 1017.3
20200929114043 22 10 11.3 17.7 0.00 0.00 0.00 71 1017.4
20200929113048 22 10 8.0 16.1 0.00 0.00 0.00 71 1017.4
20200929112051 22 5 11.3 19.3 0.00 0.00 0.00 71 1017.4
20200929111532 22 355 9.7 19.3 0.00 0.00 0.00 70 1017.3
20200929111030 22 25 9.7 16.1 0.00 0.00 0.00 71 1017.4
20200929110053 22 15 9.7 14.5 0.00 0.00 0.00 73 1017.5
20200929105028 21 346 9.7 17.7 0.00 0.00 0.00 73 1017.5
20200929104033 21 355 11.3 16.1 0.00 0.00 0.00 74 1017.5
20200929103044 20 34 11.3 14.5 0.00 0.00 0.00 77 1017.5
20200929102041 20 347 9.7 14.5 0.00 0.00 0.00 79 1017.6
20200929101538 20 5 8.0 16.1 0.00 0.00 0.00 79 1017.4
20200929101024 20 343 9.7 14.5 0.00 0.00 0.00 79 1017.6
20200929100053 20 14 4.8 14.5 0.00 0.00 0.00 81 1017.6
20200929095042 20 355 8.0 14.5 0.00 0.00 0.00 83 1017.7
20200929094550 19 14 6.4 14.5 0.00 0.00 0.00 84 1017.5
20200929094048 19 49 8.0 16.1 0.00 0.00 0.00 86 1017.6
20200929093056 18 26 9.7 16.1 0.00 0.00 0.00 88 1017.6
20200929092033 17 5 4.8 8.0 0.00 0.00 0.00 90 1017.5
20200929091039 17 28 3.2 6.4 0.00 0.00 0.00 91 1017.5
20200929090047 17 37 0.0 4.8 0.00 0.00 0.00 92 1017.5
20200929085025 17 75 0.0 3.2 0.00 0.00 0.00 93 1017.5
20200929084035 16 75 3.2 4.8 0.00 0.00 0.00 93 1017.4
20200929083050 16 75 3.2 4.8 0.00 0.00 0.00 94 1017.4
20200929082041 15 76 1.6 4.8 0.00 0.00 0.00 93 1017.3
20200929081056 15 76 0.0 3.2 0.00 0.00 0.00 93 1017.2
20200929080054 14 76 1.6 3.2 0.00 0.00 0.00 93 1017.2
20200929075047 14 76 0.0 0.0 0.00 0.00 0.00 93 1017.1
20200929074043 14 76 0.0 0.0 0.00 0.00 0.00 93 1017.1
20200929073105 13 76 0.0 0.0 0.00 0.00 0.00 93 1017.1
20200929073055 13 76 0.0 0.0 0.00 0.00 0.00 93 1017.0
20200929072030 13 76 1.6 3.2 0.00 0.00 0.00 94 1017.0
20200929071033 13 76 0.0 3.2 0.00 0.00 0.00 93 1016.8
20200929070051 12 76 0.0 3.2 0.00 0.00 0.00 92 1016.7
20200929070026 12 76 0.0 3.2 0.00 0.00 0.00 92 1016.6
20200929065040 12 76 1.6 3.2 0.00 0.00 0.00 92 1016.7
20200929064028 12 75 0.0 3.2 0.00 0.00 0.00 92 1016.6
20200929063050 12 75 0.0 0.0 0.00 0.00 0.00 92 1016.6
20200929062051 12 76 0.0 1.6 0.00 0.00 0.00 92 1016.5
20200929061540 12 76 0.0 1.6 0.00 0.00 0.00 91 1016.4
20200929061034 12 76 0.0 3.2 0.00 0.00 0.00 92 1016.5
20200929060051 12 76 0.0 1.6 0.00 0.00 0.00 92 1016.5
20200929055046 12 76 0.0 0.0 0.00 0.00 0.00 92 1016.5
20200929054542 12 76 0.0 0.0 0.00 0.00 0.00 91 1016.3
20200929054053 12 76 0.0 0.0 0.00 0.00 0.00 91 1016.5
20200929053045 12 76 0.0 0.0 0.00 0.00 0.00 91 1016.5
20200929052042 12 76 0.0 3.2 0.00 0.00 0.00 91 1016.4
20200929051034 12 76 0.0 1.6 0.00 0.00 0.00 91 1016.4
20200929050056 13 76 0.0 0.0 0.00 0.00 0.00 90 1016.4
20200929050004 12 76 0.0 0.0 0.00 0.00 0.00 90 1016.3
20200929045035 13 76 0.0 0.0 0.00 0.00 0.00 91 1016.4
20200929044036 13 76 0.0 0.0 0.00 0.00 0.00 91 1016.4
20200929043050 14 76 0.0 0.0 0.00 0.00 0.00 91 1016.4
20200929043027 13 76 0.0 0.0 0.00 0.00 0.00 91 1016.2
20200929042032 14 76 0.0 0.0 0.00 0.00 0.00 91 1016.4
20200929041038 14 76 0.0 3.2 0.00 0.00 0.00 90 1016.5
20200929040052 15 76 1.6 3.2 0.00 0.00 0.00 91 1016.4
20200929035042 15 76 1.6 3.2 0.00 0.00 0.00 91 1016.4
20200929034518 14 76 0.0 0.0 0.00 0.00 0.00 91 1016.3
20200929034045 15 76 0.0 0.0 0.00 0.00 0.00 91 1016.5
20200929033046 15 76 0.0 3.2 0.00 0.00 0.00 91 1016.4
20200929032028 15 76 0.0 0.0 0.00 0.00 0.00 91 1016.4
20200929031653 14 76 0.0 0.0 0.00 0.00 0.00 91 1016.3
20200929031037 15 76 0.0 0.0 0.00 0.00 0.00 91 1016.4
20200929030048 15 76 0.0 1.6 0.00 0.00 0.00 91 1016.3
20200929025050 14 76 1.6 3.2 0.00 0.00 0.00 90 1016.4
20200929024634 14 76 1.6 4.8 0.00 0.00 0.00 90 1016.3
20200929024034 14 76 3.2 4.8 0.00 0.00 0.00 90 1016.4
20200929023047 15 76 0.0 0.0 0.00 0.00 0.00 90 1016.5
20200929022027 15 76 1.6 3.2 0.00 0.00 0.00 90 1016.5